[[{"header":{"parameterUnit":"m.s-1","parameterCategory":1,"la1":30.2992,"la2":30.254,"lo1":-89.0895,"lo2":-89.0443,"dy":0.0025,"dx":0.0025,"nx":19,"ny":19,"refTime":"2026-03-23T09:00:00:Z","depth":0,"parameterNumber":2,"parameterNumberName":"U-component_of_WINDS"},"data":[0,0,0,3.6467,3.6468,3.6511,3.6511,3.6577,3.6578,0,0,0,0,0,0,0,0,0,0,0,3.6458,3.6459,3.6467,3.6469,3.6511,3.6511,3.6577,3.6578,0,0,0,0,0,0,0,0,0,0,0,3.6458,3.6459,3.646,3.6469,3.6511,3.6511,3.6577,3.6541,0,0,0,0,0,0,0,0,0,0,3.6498,3.6492,3.6459,3.646,3.6469,3.6511,3.6511,3.6539,3.6544,3.6562,0,3.6577,0,3.6578,3.6583,3.6583,0,0,0,3.6466,3.6489,3.6497,3.646,3.6469,3.6511,3.6491,3.6542,3.6546,3.6567,3.6577,3.658,3.658,3.6583,3.6584,3.6696,3.6697,0,0,3.6464,3.6468,3.6494,3.6501,3.6492,3.649,3.6492,3.6544,3.6556,3.6578,3.6581,3.6581,3.6584,3.6584,3.6696,3.6697,0,0,0,3.6459,3.6467,3.6473,3.6498,3.6505,3.6491,3.6494,3.6554,3.6556,3.6582,3.6581,3.6584,3.6585,3.6695,3.6696,3.6734,0,0,0,3.6457,3.6464,3.6473,3.6476,3.6504,3.6529,3.6503,3.6552,3.6558,3.6581,3.6584,3.6586,3.6694,3.6696,3.6731,3.6751,0,0,0,3.6454,3.6463,3.6471,3.6476,3.6494,3.6528,3.6533,3.6553,3.6558,3.6583,3.6586,3.6694,3.6695,3.6729,3.6747,3.6785,0,0,0,3.6453,3.6501,3.6471,3.6525,3.6494,3.6551,3.6532,3.6574,3.66,3.6585,3.6694,3.6696,3.6728,3.6745,3.6783,3.6819,3.6834,0,0,3.6516,3.6508,3.654,3.6515,3.6578,3.6544,3.6614,3.6633,3.6631,3.6676,3.6678,3.6732,3.6747,3.6785,3.6914,3.6926,0,0,0,3.6562,3.6585,3.6601,3.6627,3.6643,3.6661,3.6669,3.6678,3.6716,3.6654,3.6755,3.6764,3.6786,3.6803,3.6813,3.6834,3.6703,3.6703,3.6703,3.6657,3.6654,3.6709,3.6713,3.6739,3.675,3.6772,3.6786,3.6773,3.6798,3.6811,3.689,3.691,3.6918,3.6939,3.6829,3.6829,3.6829,3.6829,3.6751,3.6786,3.6773,3.6821,3.682,3.6861,3.6877,3.6869,3.691,3.6877,3.6897,3.6864,3.6931,3.695,3.6832,3.6831,3.6831,3.6831,3.6831,3.6814,3.6831,3.6841,3.6883,3.6916,3.692,3.6962,3.6958,3.6956,3.6975,3.6992,3.6992,3.6993,3.6983,3.6984,3.6984,3.6984,3.6984,3.6984,3.6876,3.6887,3.6922,3.6949,3.6969,3.6994,3.7012,3.7032,3.7054,3.7049,3.7049,3.7038,3.6937,3.6913,3.6989,3.6988,3.6987,3.6987,3.6987,3.6975,3.6954,3.7007,3.7028,3.7063,3.71,3.7097,3.714,3.7157,3.7179,3.7166,3.709,3.7082,3.7074,3.7055,3.7163,3.7163,3.7163,3.7163,3.703,3.7027,3.7085,3.7118,3.7151,3.7156,3.7223,3.724,3.7254,3.7266,3.725,3.7224,3.7215,3.7213,3.7202,3.7183,3.7322,3.7322,3.7322,3.7094,3.7094,3.7149,3.7162,3.7192,3.7219,3.7284,3.7327,3.7338,3.7329,3.7276,3.727,3.7227,3.7212,3.72,3.7183,3.7149,0,0]},{"header":{"parameterUnit":"m.s-1","parameterCategory":1,"la1":30.2992,"la2":30.254,"lo1":-89.0895,"lo2":-89.0443,"dy":0.0025,"dx":0.0025,"nx":19,"ny":19,"refTime":"2026-03-23T09:00:00:Z","depth":0,"parameterNumber":3,"parameterNumberName":"V-component_of_WINDS"},"data":[0,0,0,0.0191,0.02,0.0628,0.063,0.1177,0.1182,0,0,0,0,0,0,0,0,0,0,0,0.0057,0.006,0.019,0.0201,0.0628,0.063,0.1176,0.1182,0,0,0,0,0,0,0,0,0,0,0,0.0055,0.0059,0.0064,0.0202,0.0627,0.063,0.1175,0.0854,0,0,0,0,0,0,0,0,0,0,0.0439,0.0307,0.0059,0.0064,0.0205,0.0627,0.063,0.0839,0.0874,0.0981,0,0.1067,0,0.1132,0.1217,0.1219,0,0,0,0.0209,0.0277,0.0398,0.0064,0.0208,0.0626,0.0437,0.0859,0.0899,0.1027,0.1075,0.1095,0.1141,0.1221,0.1224,0.1792,0.1794,0,0,0.0185,0.0133,0.037,0.0423,0.0349,0.0424,0.045,0.0883,0.0934,0.1077,0.1108,0.115,0.1225,0.1229,0.179,0.1793,0,0,0,0.0112,0.0116,0.0226,0.0401,0.0477,0.0436,0.0467,0.0915,0.0955,0.1114,0.1156,0.1228,0.1234,0.1788,0.1791,0.185,0,0,0,0.0098,0.0073,0.0215,0.0188,0.0468,0.07,0.0489,0.0925,0.0975,0.1154,0.1228,0.1239,0.1785,0.1789,0.1843,0.1889,0,0,0,0.0032,0.0065,0.0123,0.0184,0.0364,0.0694,0.0759,0.0937,0.1001,0.122,0.1241,0.1784,0.1789,0.1837,0.1879,0.2022,0,0,0,-0.0051,0.0175,0.0123,0.0393,0.036,0.0723,0.0757,0.1032,0.1227,0.123,0.1786,0.1791,0.1835,0.1873,0.2015,0.2134,0.2177,0,0,0.0205,0.0204,0.0367,0.0333,0.069,0.0663,0.1033,0.1266,0.1339,0.1639,0.1654,0.1845,0.1878,0.2021,0.2437,0.2471,0,0,0,0.0431,0.0547,0.0653,0.0831,0.1007,0.1165,0.1344,0.143,0.1685,0.1479,0.1936,0.1958,0.2044,0.2104,0.2133,0.2211,0.1815,0.1815,0.1814,0.0723,0.0796,0.107,0.1194,0.1367,0.1547,0.1696,0.1844,0.1875,0.1981,0.2071,0.2314,0.2381,0.2404,0.2484,0.2138,0.2139,0.2139,0.2139,0.1107,0.1284,0.131,0.1585,0.1663,0.1899,0.2081,0.2094,0.2328,0.2253,0.2333,0.2246,0.2438,0.2513,0.2144,0.2143,0.2143,0.2142,0.2142,0.1308,0.1405,0.1499,0.1761,0.1957,0.2078,0.2298,0.2364,0.2429,0.2507,0.2611,0.261,0.2619,0.2551,0.2552,0.2552,0.2553,0.2554,0.2554,0.148,0.1584,0.1758,0.196,0.2081,0.225,0.243,0.2554,0.271,0.2741,0.2742,0.2763,0.2441,0.236,0.2568,0.2565,0.2564,0.2562,0.2562,0.1847,0.1773,0.2041,0.2162,0.2404,0.2594,0.2671,0.2918,0.303,0.3138,0.314,0.289,0.2897,0.2874,0.2808,0.312,0.312,0.312,0.312,0.2018,0.2024,0.2312,0.25,0.2693,0.2788,0.3095,0.3237,0.3375,0.345,0.3413,0.333,0.3303,0.3327,0.3294,0.3234,0.3647,0.3648,0.3648,0.2249,0.2275,0.2521,0.2644,0.2838,0.3004,0.3295,0.3516,0.3657,0.3671,0.3511,0.3488,0.3354,0.3306,0.332,0.3268,0.3158,0,0]}]]